Location: Central Falls
(41.8900°N, 71.3929°W)
Time: 04:44:18
(UTC+00:00)

Vanguard 2 - Pass Details

Date: 03 December 2023
Orbit: 554 x 2918 km, 32.9° (Epoch: 01 March)

Event Time Altitude Azimuth Distance (km) Brightness Sun altitude
Rises 23:09:58 0° 194° (SSW) 6,593 12.6 -20.8°
Reaches altitude 10° 23:16:12 10° 180° (S) 5,715 12.1 -22.0°
Maximum altitude 23:27:07 20° 141° (SE) 4,842 11.3 -24.0°
Enters shadow 23:31:49 18° 122° (ESE) 4,880 11.1 -24.8°
Drops below altitude 10° 23:37:09 10° 102° (ESE) 5,263 - -25.8°
Sets 23:42:24 0° 88° (E) 5,943 - -26.8°
